EN

Hourly Weather Dziennice

Today, 22 October, Thursday

Time Temperature Precipitation Wind Pressure Humidity
00:00 +10°C° 0 mm 5 mps 750 mmHg 72%
01:00 +10°C° 0 mm 6 mps 750 mmHg 71%
02:00 +10°C° 0 mm 6 mps 750 mmHg 70%
03:00 +10°C° 0 mm 6 mps 750 mmHg 69%
04:00 +10°C° 0 mm 6 mps 749 mmHg 68%
05:00 +11°C° 0 mm 6 mps 750 mmHg 69%
06:00 +11°C° 0 mm 6 mps 750 mmHg 70%
07:00 +11°C° 0 mm 6 mps 751 mmHg 71%
08:00 +14°C° 0 mm 7 mps 751 mmHg 69%
09:00 +15°C° 0 mm 7 mps 752 mmHg 67%
10:00 +16°C° 0 mm 7 mps 752 mmHg 65%
11:00 +17°C° 0 mm 7 mps 752 mmHg 65%
12:00 +17°C° 0 mm 7 mps 752 mmHg 65%
13:00 +19°C° 0 mm 6 mps 753 mmHg 65%
14:00 +17°C° 0 mm 5 mps 752 mmHg 68%
15:00 +16°C° 0 mm 5 mps 752 mmHg 71%
16:00 +17°C° 0 mm 4 mps 752 mmHg 74%
17:00 +15°C° 0 mm 4 mps 752 mmHg 76%
18:00 +14°C° 0 mm 4 mps 752 mmHg 78%
19:00 +14°C° 0 mm 4 mps 753 mmHg 80%
20:00 +14°C° 0 mm 4 mps 752 mmHg 81%
21:00 +13°C° 0 mm 4 mps 752 mmHg 83%
22:00 +13°C° 0 mm 3 mps 752 mmHg 84%
23:00 +13°C° 0 mm 4 mps 752 mmHg 83%

Tomorrow, 23 October, Friday

Time Temperature Precipitation Wind Pressure Humidity
00:00 +13°C° 0 mm 4 mps 752 mmHg 83%
01:00 +13°C° 0 mm 4 mps 752 mmHg 82%
02:00 +13°C° 0 mm 5 mps 752 mmHg 81%
03:00 +13°C° 0 mm 5 mps 751 mmHg 81%
04:00 +14°C° 0 mm 5 mps 751 mmHg 80%
05:00 +13°C° 0.1 mm 5 mps 751 mmHg 83%
06:00 +13°C° 0.1 mm 4 mps 751 mmHg 86%
07:00 +13°C° 0.1 mm 4 mps 751 mmHg 90%
08:00 +14°C° 0 mm 4 mps 751 mmHg 87%
09:00 +15°C° 0 mm 4 mps 751 mmHg 83%
10:00 +15°C° 0 mm 5 mps 751 mmHg 80%
11:00 +17°C° 0 mm 4 mps 751 mmHg 78%
12:00 +17°C° 0 mm 4 mps 751 mmHg 76%
13:00 +18°C° 0 mm 3 mps 751 mmHg 73%
14:00 +17°C° 0 mm 3 mps 751 mmHg 76%
15:00 +17°C° 0 mm 2 mps 751 mmHg 79%
16:00 +16°C° 0 mm 1 mps 751 mmHg 82%
17:00 +16°C° 0.1 mm 1 mps 750 mmHg 84%
18:00 +15°C° 0.1 mm 1 mps 750 mmHg 86%
19:00 +15°C° 0.1 mm 1 mps 750 mmHg 89%
20:00 +14°C° 0.9 mm 1 mps 750 mmHg 91%
21:00 +14°C° 0.9 mm 1 mps 750 mmHg 94%
22:00 +14°C° 0.9 mm 2 mps 750 mmHg 97%
23:00 +14°C° 1.1 mm 1 mps 750 mmHg 97%

Day after tomorrow, 24 October, Saturday

Time Temperature Precipitation Wind Pressure Humidity
00:00 +14°C° 1.1 mm 1 mps 750 mmHg 97%
01:00 +14°C° 1.1 mm 1 mps 750 mmHg 97%
02:00 +14°C° 0.6 mm 1 mps 750 mmHg 97%
03:00 +14°C° 0.6 mm 1 mps 750 mmHg 97%
04:00 +14°C° 0.6 mm 1 mps 750 mmHg 97%
05:00 +14°C° 0.3 mm 1 mps 750 mmHg 96%
06:00 +14°C° 0.3 mm 2 mps 750 mmHg 95%
07:00 +14°C° 0.3 mm 2 mps 750 mmHg 94%
08:00 +13°C° 0.1 mm 3 mps 750 mmHg 89%
09:00 +14°C° 0.1 mm 4 mps 751 mmHg 84%
10:00 +15°C° 0.1 mm 5 mps 751 mmHg 79%
11:00 +15°C° 0 mm 5 mps 751 mmHg 76%
12:00 +15°C° 0 mm 5 mps 752 mmHg 72%
13:00 +16°C° 0 mm 6 mps 752 mmHg 69%
14:00 +15°C° 0 mm 5 mps 752 mmHg 72%
15:00 +14°C° 0 mm 5 mps 753 mmHg 75%
16:00 +13°C° 0 mm 4 mps 753 mmHg 78%
17:00 +12°C° 0 mm 3 mps 753 mmHg 80%
18:00 +12°C° 0 mm 3 mps 754 mmHg 82%
19:00 +12°C° 0 mm 2 mps 754 mmHg 83%
20:00 +12°C° 0 mm 2 mps 754 mmHg 84%
21:00 +11°C° 0 mm 3 mps 754 mmHg 84%
22:00 +11°C° 0 mm 3 mps 754 mmHg 84%
23:00 +11°C° 0 mm 3 mps 754 mmHg 84%

, 25 October, Sunday

Time Temperature Precipitation Wind Pressure Humidity
00:00 +11°C° 0 mm 3 mps 755 mmHg 85%
01:00 +11°C° 0 mm 3 mps 755 mmHg 85%
02:00 +11°C° 0 mm 3 mps 755 mmHg 84%
03:00 +11°C° 0 mm 3 mps 755 mmHg 84%
04:00 +12°C° 0 mm 2 mps 755 mmHg 84%
05:00 +12°C° 0 mm 2 mps 755 mmHg 85%
06:00 +10°C° 0 mm 2 mps 755 mmHg 86%
07:00 +10°C° 0 mm 2 mps 754 mmHg 87%
08:00 +11°C° 0 mm 3 mps 755 mmHg 83%
09:00 +12°C° 0 mm 3 mps 755 mmHg 78%
10:00 +13°C° 0 mm 4 mps 755 mmHg 73%
11:00 +14°C° 0 mm 4 mps 754 mmHg 70%
12:00 +15°C° 0 mm 4 mps 754 mmHg 67%
13:00 +17°C° 0 mm 4 mps 754 mmHg 64%
14:00 +15°C° 0 mm 4 mps 754 mmHg 68%
15:00 +16°C° 0 mm 3 mps 753 mmHg 72%
16:00 +14°C° 0 mm 3 mps 753 mmHg 76%
17:00 +13°C° 0 mm 3 mps 753 mmHg 79%
18:00 +13°C° 0 mm 3 mps 753 mmHg 82%
19:00 +12°C° 0 mm 4 mps 753 mmHg 84%
20:00 +12°C° 0 mm 4 mps 753 mmHg 85%
21:00 +11°C° 0 mm 4 mps 753 mmHg 85%
22:00 +11°C° 0 mm 4 mps 753 mmHg 86%
23:00 +11°C° 0 mm 4 mps 752 mmHg 86%

25 October, Sunday

Time Temperature Precipitation Wind Pressure Humidity
00:00 +11°C° 0 mm 3 mps 755 mmHg 85%
01:00 +11°C° 0 mm 3 mps 755 mmHg 85%
02:00 +11°C° 0 mm 3 mps 755 mmHg 84%
03:00 +11°C° 0 mm 3 mps 755 mmHg 84%
04:00 +12°C° 0 mm 2 mps 755 mmHg 84%
05:00 +12°C° 0 mm 2 mps 755 mmHg 85%
06:00 +10°C° 0 mm 2 mps 755 mmHg 86%
07:00 +10°C° 0 mm 2 mps 754 mmHg 87%
08:00 +11°C° 0 mm 3 mps 755 mmHg 83%
09:00 +12°C° 0 mm 3 mps 755 mmHg 78%
10:00 +13°C° 0 mm 4 mps 755 mmHg 73%
11:00 +14°C° 0 mm 4 mps 754 mmHg 70%
12:00 +15°C° 0 mm 4 mps 754 mmHg 67%
13:00 +17°C° 0 mm 4 mps 754 mmHg 64%
14:00 +15°C° 0 mm 4 mps 754 mmHg 68%
15:00 +16°C° 0 mm 3 mps 753 mmHg 72%
16:00 +14°C° 0 mm 3 mps 753 mmHg 76%
17:00 +13°C° 0 mm 3 mps 753 mmHg 79%
18:00 +13°C° 0 mm 3 mps 753 mmHg 82%
19:00 +12°C° 0 mm 4 mps 753 mmHg 84%
20:00 +12°C° 0 mm 4 mps 753 mmHg 85%
21:00 +11°C° 0 mm 4 mps 753 mmHg 85%
22:00 +11°C° 0 mm 4 mps 753 mmHg 86%
23:00 +11°C° 0 mm 4 mps 752 mmHg 86%

26 October, Monday

Time Temperature Precipitation Wind Pressure Humidity
00:00 +10°C° 0 mm 4 mps 752 mmHg 87%
01:00 +10°C° 0 mm 4 mps 752 mmHg 88%
02:00 +10°C° 0 mm 4 mps 752 mmHg 89%
03:00 +8°C° 0 mm 4 mps 751 mmHg 90%
04:00 +9°C° 0 mm 3 mps 751 mmHg 91%
05:00 +8°C° 0 mm 4 mps 751 mmHg 92%
06:00 +7°C° 0 mm 4 mps 751 mmHg 92%
07:00 +7°C° 0 mm 4 mps 750 mmHg 93%
08:00 +8°C° 0 mm 4 mps 750 mmHg 88%
09:00 +11°C° 0 mm 4 mps 750 mmHg 84%
10:00 +12°C° 0 mm 4 mps 750 mmHg 79%
11:00 +13°C° 0 mm 4 mps 749 mmHg 77%
12:00 +14°C° 0 mm 5 mps 749 mmHg 74%
13:00 +15°C° 0 mm 5 mps 749 mmHg 71%
14:00 +14°C° 0 mm 4 mps 748 mmHg 74%
15:00 +14°C° 0 mm 4 mps 748 mmHg 77%
16:00 +13°C° 0 mm 3 mps 748 mmHg 80%
17:00 +13°C° 0 mm 3 mps 748 mmHg 82%
18:00 +12°C° 0 mm 4 mps 748 mmHg 84%
19:00 +12°C° 0 mm 4 mps 748 mmHg 87%
20:00 +12°C° 0 mm 4 mps 747 mmHg 87%
21:00 +12°C° 0 mm 4 mps 747 mmHg 87%
22:00 +12°C° 0 mm 4 mps 747 mmHg 87%
23:00 +11°C° 0 mm 4 mps 747 mmHg 88%

27 October, Tuesday

Time Temperature Precipitation Wind Pressure Humidity
00:00 +11°C° 0 mm 3 mps 747 mmHg 90%
01:00 +10°C° 0 mm 3 mps 747 mmHg 91%
02:00 +10°C° 0 mm 3 mps 747 mmHg 90%
03:00 +10°C° 0 mm 3 mps 747 mmHg 89%
04:00 +10°C° 0 mm 3 mps 747 mmHg 88%
05:00 +10°C° 0 mm 3 mps 747 mmHg 89%
06:00 +10°C° 0 mm 3 mps 748 mmHg 90%
07:00 +10°C° 0 mm 3 mps 748 mmHg 91%
08:00 +11°C° 0 mm 3 mps 748 mmHg 87%
09:00 +13°C° 0 mm 4 mps 748 mmHg 82%
10:00 +14°C° 0 mm 4 mps 748 mmHg 78%
11:00 +14°C° 0 mm 4 mps 749 mmHg 75%
12:00 +15°C° 0 mm 4 mps 749 mmHg 72%
13:00 +15°C° 0 mm 4 mps 749 mmHg 70%
14:00 +16°C° 0 mm 3 mps 749 mmHg 73%
15:00 +14°C° 0 mm 3 mps 749 mmHg 76%
16:00 +14°C° 0 mm 2 mps 750 mmHg 79%
17:00 +14°C° 0 mm 2 mps 750 mmHg 81%
18:00 +13°C° 0 mm 2 mps 750 mmHg 84%
19:00 +12°C° 0 mm 1 mps 751 mmHg 86%
20:00 +12°C° 0 mm 1 mps 751 mmHg 86%
21:00 +12°C° 0 mm 1 mps 751 mmHg 86%
22:00 +12°C° 0 mm 1 mps 751 mmHg 86%
23:00 +12°C° 0 mm 1 mps 752 mmHg 86%
Show more